QPF
0.02 0.02 0.02 0.04 0.04 0.03 0.05 0.03 0.04 0.05 0.05 0.06 0.08 0.07 0.06 0.06 0.05 0.05 0.05 0.05 0.04 0.06 0.05 0.04 0.04 0.04 0.05 0.05 0.06 0.07 0.08 0.09 0.08 0.07 0.05 0.06 0.07 0.06 0.04 0.03 0.04 0.06 0.07
0.02 0.02 0.02 0.02 0.03 0.03 0.04 0.05 0.06 0.04 0.04 0.05 0.06 0.06 0.05 0.04 0.04 0.04 0.04 0.05 0.05 0.06 0.06 0.06 0.05 0.04 0.04 0.04 0.04 0.06 0.08 0.09 0.09 0.08 0.06 0.06 0.07 0.07 0.07 0.05 0.04 0.03 0.03
0.02 0.02 0.02 0.02 0.02 0.02 0.02 0.02 0.03 0.03 0.03 0.04 0.04 0.04 0.03 0.03 0.04 0.04 0.04 0.03 0.04 0.05 0.06 0.07 0.07 0.05 0.05 0.05 0.03 0.04 0.05 0.06 0.07 0.07 0.07 0.06 0.05 0.06 0.05 0.04 0.04 0.05 0.04
0.02 0.02 0.02 0.02 0.03 0.02 0.02 0.02 0.02 0.01 0.02 0.02 0.03 0.03 0.03 0.03 0.04 0.05 0.04 0.04 0.04 0.05 0.06 0.05 0.06 0.06 0.06 0.06 0.04 0.05 0.05 0.05 0.05 0.06 0.08 0.07 0.06 0.04 0.04 0.03 0.04 0.05 0.04
0.03 0.02 0.02 0.02 0.03 0.03 0.03 0.03 0.02 0.01 0.02 0.02 0.02 0.02 0.02 0.02 0.03 0.04 0.05 0.04 0.04 0.05 0.05 0.05 0.06 0.06 0.05 0.04 0.04 0.06 0.06 0.06 0.05 0.05 0.06 0.06 0.05 0.05 0.04 0.04 0.04 0.06 0.06
0.03 0.02 0.02 0.02 0.02 0.03 0.03 0.03 0.03 0.02 0.02 0.01 0.01 0.01 0.01 0.01 0.02 0.03 0.04 0.04 0.04 0.04 0.04 0.05 0.05 0.06 0.05 0.04 0.04 0.06 0.06 0.07 0.07 0.07 0.05 0.05 0.05 0.07 0.06 0.05 0.05 0.06 0.07
0.02 0.03 0.02 0.02 0.03 0.02 0.02 0.02 0.02 0.02 0.01 0.01 0.01 0.01 0.01 0.01 0.02 0.02 0.02 0.02 0.03 0.03 0.03 0.04 0.04 0.06 0.07 0.06 0.04 0.04 0.05 0.05 0.05 0.06 0.06 0.06 0.06 0.06 0.07 0.06 0.06 0.06 0.06
0.03 0.03 0.03 0.04 0.04 0.03 0.02 0.02 0.02 0.02 0.02 0.01 0.01 0.01 0.01 0.01 0.01 0.01 0.01 0.01 0.01 0.02 0.02 0.02 0.03 0.04 0.07 0.09 0.07 0.06 0.05 0.05 0.05 0.04 0.05 0.06 0.05 0.05 0.05 0.06 0.07 0.07 0.07
0.02 0.01 0.01 0.02 0.03 0.03 0.03 0.02 0.02 0.02 0.02 0.02 0.01 0.01 0.01 0.01 0.01 0.01 0.01 0.01 0.01 0.01 0.02 0.02 0.03 0.02 0.04 0.08 0.08 0.08 0.07 0.06 0.05 0.04 0.03 0.03 0.04 0.04 0.05 0.06 0.07 0.08 0.07
0.01 0.01 0.01 0.01 0.01 0.02 0.02 0.02 0.01 0.01 0.01 0.01 0.01 0.01 0.01 0.01 0.01 0.01 0.01 0.01 0.01 0.01 0.01 0.02 0.03 0.02 0.02 0.04 0.04 0.05 0.06 0.06 0.07 0.06 0.05 0.03 0.03 0.04 0.04 0.04 0.07 0.10 0.10
0.01 0.00 0.00 0.01 0.01 0.01 0.01 0.02 0.02 0.02 0.02 0.02 0.02 0.02 0.01 0.01 0.01 0.01 0.01 0.02 0.01 0.01 0.01 0.02 0.01 0.01 0.02 0.02 0.03 0.03 0.03 0.04 0.05 0.07 0.07 0.06 0.05 0.04 0.03 0.03 0.04 0.06 0.08
0.00 0.00 0.00 0.01 0.01 0.01 0.01 0.02 0.02 0.01 0.01 0.02 0.03 0.03 0.03 0.02 0.02 0.02 0.02 0.02 0.02 0.02 0.02 0.01 0.01 0.01 0.02 0.02 0.03 0.03 0.04 0.04 0.05 0.07 0.08 0.07 0.05 0.05 0.04 0.03 0.03 0.03 0.04
0.01 0.01 0.01 0.01 0.01 0.01 0.01 0.01 0.01 0.01 0.02 0.03 0.03 0.04 0.04 0.03 0.03 0.03 0.03 0.02 0.03 0.03 0.03 0.03 0.03 0.02 0.02 0.02 0.02 0.03 0.03 0.03 0.04 0.05 0.06 0.05 0.04 0.05 0.06 0.06 0.05 0.04 0.04
0.01 0.01 0.01 0.02 0.01 0.01 0.02 0.02 0.02 0.02 0.03 0.03 0.04 0.04 0.04 0.03 0.02 0.03 0.05 0.04 0.03 0.04 0.04 0.03 0.03 0.04 0.03 0.02 0.01 0.01 0.02 0.02 0.02 0.03 0.03 0.04 0.04 0.05 0.04 0.05 0.06 0.06 0.07
0.02 0.01 0.01 0.01 0.02 0.02 0.02 0.03 0.03 0.03 0.03 0.03 0.03 0.03 0.03 0.02 0.02 0.03 0.04 0.04 0.04 0.04 0.04 0.04 0.03 0.03 0.04 0.02 0.02 0.02 0.02 0.02 0.02 0.02 0.03 0.04 0.05 0.04 0.04 0.04 0.03 0.03 0.04
0.02 0.02 0.01 0.01 0.01 0.01 0.01 0.02 0.02 0.02 0.03 0.03 0.03 0.03 0.02 0.01 0.01 0.01 0.02 0.03 0.04 0.04 0.04 0.03 0.03 0.03 0.03 0.02 0.02 0.02 0.02 0.02 0.02 0.02 0.03 0.03 0.04 0.03 0.03 0.04 0.04 0.03 0.03
0.02 0.02 0.01 0.01 0.01 0.01 0.01 0.01 0.01 0.01 0.02 0.02 0.02 0.03 0.02 0.01 0.01 0.01 0.01 0.01 0.02 0.03 0.03 0.03 0.03 0.03 0.02 0.02 0.02 0.02 0.02 0.02 0.02 0.02 0.03 0.03 0.03 0.03 0.04 0.04 0.04 0.04 0.04
0.03 0.02 0.02 0.01 0.01 0.01 0.02 0.02 0.01 0.01 0.01 0.02 0.01 0.01 0.01 0.01 0.01 0.01 0.01 0.01 0.02 0.02 0.02 0.02 0.02 0.02 0.02 0.02 0.02 0.02 0.02 0.02 0.02 0.03 0.03 0.03 0.04 0.04 0.04 0.04 0.04 0.04 0.04
0.01 0.01 0.01 0.01 0.02 0.02 0.02 0.02 0.02 0.03 0.02 0.02 0.01 0.01 0.01 0.01 0.01 0.01 0.01 0.01 0.02 0.02 0.02 0.01 0.01 0.01 0.01 0.01 0.01 0.01 0.02 0.02 0.02 0.02 0.02 0.03 0.04 0.04 0.04 0.04 0.04 0.04 0.04
0.01 0.01 0.02 0.02 0.02 0.02 0.02 0.02 0.02 0.03 0.03 0.02 0.02 0.01 0.01 0.01 0.01 0.01 0.01 0.01 0.01 0.01 0.01 0.01 0.01 0.01 0.01 0.01 0.01 0.01 0.02 0.02 0.02 0.02 0.03 0.03 0.03 0.04 0.04 0.03 0.04 0.04 0.04
0.01 0.01 0.01 0.01 0.02 0.01 0.01 0.02 0.02 0.02 0.02 0.02 0.02 0.02 0.02 0.02 0.01 0.01 0.01 0.01 0.01 0.01 0.01 0.01 0.01 0.01 0.01 0.01 0.02 0.02 0.02 0.03 0.03 0.02 0.02 0.03 0.03 0.03 0.03 0.03 0.04 0.04 0.05
0.01 0.01 0.01 0.02 0.02 0.02 0.02 0.02 0.02 0.02 0.02 0.02 0.02 0.03 0.02 0.02 0.01 0.01 0.02 0.02 0.02 0.02 0.01 0.01 0.02 0.02 0.02 0.02 0.01 0.01 0.02 0.02 0.02 0.03 0.02 0.02 0.03 0.03 0.03 0.04 0.04 0.04 0.05
0.02 0.02 0.02 0.02 0.02 0.03 0.03 0.03 0.02 0.02 0.02 0.02 0.02 0.02 0.03 0.02 0.02 0.02 0.02 0.03 0.02 0.02 0.01 0.01 0.01 0.01 0.01 0.01 0.01 0.01 0.02 0.02 0.02 0.02 0.02 0.02 0.03 0.03 0.04 0.04 0.05 0.04 0.04
0.03 0.02 0.02 0.02 0.02 0.02 0.02 0.03 0.03 0.03 0.03 0.02 0.02 0.03 0.03 0.03 0.03 0.02 0.02 0.02 0.02 0.01 0.01 0.01 0.01 0.01 0.01 0.01 0.01 0.01 0.01 0.02 0.01 0.01 0.02 0.02 0.02 0.03 0.03 0.03 0.04 0.04 0.04
0.04 0.03 0.02 0.03 0.03 0.02 0.02 0.02 0.02 0.03 0.03 0.03 0.03 0.03 0.03 0.03 0.03 0.03 0.03 0.02 0.02 0.01 0.01 0.01 0.01 0.01 0.01 0.01 0.01 0.01 0.01 0.01 0.01 0.02 0.02 0.02 0.02 0.02 0.02 0.02 0.03 0.03 0.04
0.03 0.02 0.03 0.04 0.06 0.05 0.04 0.03 0.03 0.03 0.03 0.04 0.04 0.04 0.04 0.03 0.03 0.03 0.02 0.02 0.02 0.02 0.01 0.01 0.01 0.01 0.01 0.01 0.01 0.01 0.01 0.01 0.01 0.01 0.02 0.03 0.03 0.03 0.03 0.03 0.03 0.03 0.03
MSLP
1002.24 1002.31 1002.51 1002.81 1003.17 1003.57 1003.99 1004.42 1004.85 1005.28 1005.70 1006.12 1006.52 1006.91 1007.26 1007.57 1007.84 1008.06 1008.23 1008.34 1008.41 1008.42 1008.40 1008.32 1008.21 1008.05 1007.86 1007.64 1007.41 1007.20 1007.02 1006.89 1006.83 1006.85 1006.96 1007.13 1007.36 1007.64 1007.93 1008.23 1008.51 1008.77 1009.00
1001.66 1001.76 1002.01 1002.38 1002.82 1003.30 1003.80 1004.30 1004.80 1005.29 1005.77 1006.24 1006.70 1007.14 1007.54 1007.90 1008.20 1008.42 1008.58 1008.66 1008.67 1008.61 1008.50 1008.33 1008.13 1007.91 1007.66 1007.42 1007.19 1006.99 1006.84 1006.76 1006.74 1006.79 1006.91 1007.09 1007.31 1007.55 1007.80 1008.03 1008.25 1008.44 1008.62
1001.16 1001.35 1001.70 1002.16 1002.71 1003.29 1003.89 1004.47 1005.03 1005.58 1006.12 1006.64 1007.14 1007.61 1008.05 1008.43 1008.74 1008.96 1009.10 1009.14 1009.09 1008.96 1008.77 1008.53 1008.26 1007.97 1007.69 1007.44 1007.21 1007.04 1006.92 1006.87 1006.88 1006.95 1007.08 1007.24 1007.42 1007.60 1007.77 1007.91 1008.03 1008.13 1008.22
1000.80 1001.12 1001.60 1002.19 1002.86 1003.55 1004.24 1004.90 1005.53 1006.13 1006.70 1007.25 1007.77 1008.27 1008.72 1009.11 1009.42 1009.64 1009.75 1009.75 1009.66 1009.48 1009.23 1008.93 1008.62 1008.30 1008.00 1007.74 1007.53 1007.38 1007.30 1007.27 1007.30 1007.38 1007.48 1007.61 1007.72 1007.82 1007.89 1007.92 1007.92 1007.89 1007.87
1000.65 1001.11 1001.73 1002.45 1003.24 1004.04 1004.81 1005.54 1006.21 1006.84 1007.43 1007.99 1008.52 1009.02 1009.47 1009.86 1010.17 1010.38 1010.48 1010.46 1010.34 1010.13 1009.86 1009.54 1009.21 1008.89 1008.60 1008.35 1008.17 1008.04 1007.98 1007.97 1008.00 1008.06 1008.13 1008.19 1008.22 1008.22 1008.17 1008.07 1007.94 1007.79 1007.63
1000.72 1001.32 1002.08 1002.92 1003.81 1004.69 1005.52 1006.28 1006.98 1007.62 1008.21 1008.77 1009.29 1009.78 1010.22 1010.61 1010.92 1011.12 1011.22 1011.21 1011.09 1010.89 1010.62 1010.31 1009.99 1009.69 1009.43 1009.22 1009.06 1008.96 1008.92 1008.91 1008.92 1008.95 1008.96 1008.95 1008.89 1008.79 1008.62 1008.40 1008.14 1007.86 1007.58
1001.03 1001.76 1002.62 1003.55 1004.51 1005.43 1006.29 1007.07 1007.77 1008.39 1008.97 1009.50 1010.00 1010.47 1010.91 1011.30 1011.61 1011.83 1011.95 1011.96 1011.86 1011.69 1011.45 1011.18 1010.91 1010.65 1010.42 1010.25 1010.13 1010.05 1010.01 1009.99 1009.98 1009.96 1009.91 1009.82 1009.68 1009.48 1009.22 1008.90 1008.53 1008.15 1007.76
1001.57 1002.39 1003.32 1004.30 1005.29 1006.23 1007.08 1007.84 1008.52 1009.11 1009.65 1010.16 1010.64 1011.09 1011.52 1011.91 1012.23 1012.48 1012.63 1012.68 1012.63 1012.50 1012.32 1012.10 1011.88 1011.67 1011.49 1011.35 1011.24 1011.18 1011.13 1011.09 1011.05 1010.98 1010.88 1010.72 1010.51 1010.24 1009.91 1009.53 1009.10 1008.65 1008.20
1002.29 1003.17 1004.13 1005.14 1006.12 1007.04 1007.86 1008.59 1009.23 1009.79 1010.29 1010.77 1011.22 1011.67 1012.09 1012.49 1012.83 1013.10 1013.29 1013.38 1013.38 1013.31 1013.18 1013.01 1012.84 1012.66 1012.52 1012.40 1012.31 1012.23 1012.17 1012.11 1012.02 1011.91 1011.76 1011.56 1011.30 1011.00 1010.64 1010.23 1009.79 1009.32 1008.85
1003.16 1004.06 1005.03 1006.02 1006.97 1007.86 1008.65 1009.34 1009.93 1010.46 1010.94 1011.39 1011.83 1012.27 1012.69 1013.09 1013.45 1013.75 1013.96 1014.09 1014.13 1014.09 1014.00 1013.87 1013.72 1013.57 1013.44 1013.32 1013.23 1013.14 1013.05 1012.95 1012.83 1012.68 1012.49 1012.26 1011.99 1011.68 1011.33 1010.94 1010.52 1010.08 1009.62
1004.13 1005.02 1005.97 1006.93 1007.85 1008.70 1009.45 1010.11 1010.68 1011.18 1011.64 1012.08 1012.52 1012.96 1013.38 1013.79 1014.15 1014.46 1014.68 1014.82 1014.87 1014.85 1014.76 1014.64 1014.49 1014.35 1014.20 1014.08 1013.96 1013.84 1013.72 1013.59 1013.44 1013.26 1013.05 1012.81 1012.54 1012.25 1011.93 1011.59 1011.22 1010.83 1010.42
1005.16 1006.03 1006.94 1007.87 1008.75 1009.57 1010.29 1010.93 1011.49 1011.99 1012.45 1012.90 1013.34 1013.78 1014.20 1014.60 1014.96 1015.25 1015.46 1015.58 1015.61 1015.56 1015.46 1015.31 1015.14 1014.97 1014.80 1014.65 1014.50 1014.36 1014.21 1014.04 1013.86 1013.66 1013.44 1013.20 1012.95 1012.68 1012.40 1012.11 1011.80 1011.48 1011.13
1006.23 1007.06 1007.94 1008.82 1009.67 1010.46 1011.18 1011.81 1012.38 1012.89 1013.37 1013.83 1014.28 1014.72 1015.14 1015.52 1015.84 1016.10 1016.26 1016.33 1016.31 1016.21 1016.06 1015.87 1015.66 1015.45 1015.25 1015.06 1014.88 1014.71 1014.54 1014.36 1014.16 1013.94 1013.71 1013.47 1013.22 1012.98 1012.73 1012.48 1012.23 1011.96 1011.67
1007.33 1008.11 1008.94 1009.78 1010.60 1011.37 1012.08 1012.72 1013.31 1013.85 1014.35 1014.83 1015.29 1015.73 1016.13 1016.48 1016.76 1016.95 1017.05 1017.04 1016.95 1016.78 1016.56 1016.31 1016.05 1015.80 1015.57 1015.36 1015.17 1014.99 1014.80 1014.61 1014.40 1014.17 1013.93 1013.68 1013.43 1013.18 1012.94 1012.71 1012.48 1012.24 1011.99
1008.45 1009.17 1009.94 1010.73 1011.52 1012.27 1012.97 1013.62 1014.23 1014.80 1015.33 1015.83 1016.30 1016.73 1017.11 1017.41 1017.63 1017.75 1017.76 1017.67 1017.49 1017.24 1016.96 1016.65 1016.35 1016.08 1015.84 1015.62 1015.43 1015.26 1015.08 1014.88 1014.67 1014.43 1014.17 1013.89 1013.61 1013.34 1013.07 1012.82 1012.59 1012.35 1012.10
1009.60 1010.24 1010.94 1011.67 1012.40 1013.12 1013.81 1014.47 1015.09 1015.67 1016.23 1016.74 1017.22 1017.63 1017.98 1018.23 1018.38 1018.42 1018.35 1018.18 1017.93 1017.61 1017.27 1016.93 1016.62 1016.34 1016.11 1015.91 1015.75 1015.60 1015.44 1015.25 1015.03 1014.78 1014.49 1014.17 1013.84 1013.51 1013.19 1012.89 1012.61 1012.34 1012.08
1010.78 1011.32 1011.93 1012.58 1013.25 1013.92 1014.58 1015.22 1015.84 1016.43 1017.00 1017.52 1017.99 1018.39 1018.69 1018.90 1018.99 1018.96 1018.82 1018.58 1018.27 1017.92 1017.55 1017.20 1016.90 1016.65 1016.45 1016.30 1016.18 1016.06 1015.93 1015.76 1015.54 1015.26 1014.92 1014.55 1014.15 1013.74 1013.34 1012.96 1012.62 1012.30 1012.00
1011.97 1012.40 1012.91 1013.46 1014.05 1014.65 1015.27 1015.88 1016.49 1017.07 1017.63 1018.15 1018.61 1018.98 1019.26 1019.42 1019.47 1019.39 1019.20 1018.92 1018.58 1018.21 1017.86 1017.53 1017.26 1017.06 1016.92 1016.82 1016.76 1016.68 1016.58 1016.42 1016.18 1015.87 1015.48 1015.03 1014.55 1014.05 1013.56 1013.10 1012.68 1012.30 1011.96
1013.14 1013.48 1013.87 1014.33 1014.82 1015.35 1015.90 1016.47 1017.05 1017.61 1018.16 1018.66 1019.10 1019.45 1019.70 1019.84 1019.85 1019.74 1019.54 1019.25 1018.91 1018.57 1018.25 1017.97 1017.76 1017.62 1017.54 1017.51 1017.49 1017.45 1017.36 1017.20 1016.94 1016.58 1016.13 1015.60 1015.03 1014.44 1013.87 1013.32 1012.83 1012.39 1012.00
1014.29 1014.52 1014.82 1015.17 1015.58 1016.03 1016.52 1017.04 1017.57 1018.11 1018.63 1019.11 1019.53 1019.86 1020.09 1020.21 1020.21 1020.10 1019.89 1019.62 1019.32 1019.03 1018.76 1018.55 1018.41 1018.34 1018.32 1018.34 1018.35 1018.33 1018.24 1018.05 1017.75 1017.33 1016.81 1016.21 1015.55 1014.88 1014.23 1013.62 1013.06 1012.58 1012.16
1015.38 1015.54 1015.75 1016.02 1016.35 1016.73 1017.15 1017.62 1018.11 1018.61 1019.10 1019.55 1019.95 1020.26 1020.47 1020.58 1020.58 1020.48 1020.31 1020.08 1019.84 1019.60 1019.41 1019.27 1019.20 1019.19 1019.22 1019.27 1019.29 1019.26 1019.14 1018.90 1018.54 1018.06 1017.46 1016.79 1016.06 1015.33 1014.61 1013.95 1013.36 1012.84 1012.39
1016.40 1016.51 1016.67 1016.88 1017.15 1017.47 1017.84 1018.26 1018.70 1019.16 1019.61 1020.02 1020.39 1020.67 1020.87 1020.98 1020.99 1020.92 1020.78 1020.61 1020.43 1020.27 1020.15 1020.09 1020.07 1020.11 1020.17 1020.22 1020.23 1020.16 1019.98 1019.68 1019.25 1018.69 1018.02 1017.28 1016.50 1015.71 1014.96 1014.27 1013.66 1013.12 1012.66
1017.36 1017.45 1017.58 1017.76 1017.98 1018.26 1018.59 1018.96 1019.35 1019.76 1020.16 1020.53 1020.85 1021.11 1021.29 1021.39 1021.41 1021.37 1021.27 1021.16 1021.05 1020.96 1020.92 1020.91 1020.95 1021.01 1021.07 1021.11 1021.07 1020.95 1020.70 1020.32 1019.81 1019.18 1018.44 1017.64 1016.82 1016.00 1015.24 1014.53 1013.91 1013.37 1012.89
1018.26 1018.35 1018.48 1018.64 1018.84 1019.09 1019.38 1019.70 1020.04 1020.39 1020.73 1021.04 1021.31 1021.52 1021.67 1021.75 1021.78 1021.76 1021.71 1021.66 1021.61 1021.59 1021.61 1021.65 1021.73 1021.80 1021.86 1021.86 1021.77 1021.58 1021.26 1020.80 1020.20 1019.50 1018.71 1017.87 1017.01 1016.19 1015.41 1014.71 1014.10 1013.55 1013.06
1019.09 1019.20 1019.34 1019.50 1019.69 1019.91 1020.16 1020.43 1020.71 1020.99 1021.25 1021.49 1021.69 1021.85 1021.95 1022.01 1022.04 1022.04 1022.02 1022.02 1022.03 1022.07 1022.14 1022.24 1022.34 1022.42 1022.46 1022.43 1022.29 1022.03 1021.63 1021.10 1020.44 1019.67 1018.84 1017.97 1017.10 1016.27 1015.50 1014.81 1014.20 1013.65 1013.15
1019.85 1019.98 1020.12 1020.28 1020.46 1020.66 1020.86 1021.08 1021.29 1021.49 1021.67 1021.83 1021.95 1022.04 1022.09 1022.12 1022.13 1022.14 1022.15 1022.19 1022.26 1022.36 1022.48 1022.62 1022.74 1022.84 1022.87 1022.81 1022.63 1022.32 1021.86 1021.27 1020.55 1019.75 1018.88 1017.99 1017.12 1016.29 1015.54 1014.86 1014.26 1013.71 1013.20
Thickness
5729 5727 5725 5723 5722 5721 5718 5717 5715 5713 5713 5713 5713 5713 5712 5711 5710 5709 5710 5709 5708 5707 5707 5707 5705 5705 5706 5707 5706 5706 5705 5703 5699 5701 5704 5703 5700 5700 5700 5700 5701 5700 5700
5725 5722 5719 5718 5716 5715 5713 5712 5710 5708 5707 5707 5707 5706 5706 5705 5704 5704 5703 5703 5703 5701 5701 5701 5700 5701 5699 5700 5700 5700 5700 5699 5696 5694 5696 5697 5696 5696 5695 5696 5698 5698 5698
5721 5718 5714 5712 5710 5708 5707 5706 5704 5702 5701 5701 5700 5699 5698 5698 5697 5697 5697 5697 5696 5696 5694 5694 5694 5694 5693 5694 5694 5695 5695 5696 5694 5692 5692 5692 5692 5692 5691 5692 5693 5693 5695
5717 5713 5709 5707 5704 5702 5701 5699 5697 5696 5695 5694 5693 5692 5691 5691 5690 5690 5690 5690 5690 5689 5688 5688 5687 5687 5687 5687 5689 5688 5689 5688 5688 5688 5687 5687 5687 5688 5687 5687 5687 5688 5690
5713 5709 5706 5703 5700 5697 5694 5692 5690 5689 5688 5687 5686 5686 5685 5684 5683 5682 5682 5683 5683 5682 5682 5682 5681 5679 5677 5678 5681 5681 5682 5681 5682 5681 5681 5681 5682 5681 5682 5684 5683 5683 5684
5708 5704 5701 5698 5695 5692 5689 5686 5684 5682 5681 5680 5679 5679 5678 5677 5671 5670 5671 5675 5675 5675 5675 5675 5675 5674 5671 5669 5669 5670 5671 5673 5674 5673 5675 5674 5675 5676 5677 5678 5677 5677 5677
5702 5700 5697 5693 5689 5687 5684 5681 5678 5675 5674 5673 5672 5671 5670 5666 5662 5661 5661 5665 5668 5668 5667 5667 5669 5669 5666 5666 5665 5663 5664 5663 5663 5666 5667 5668 5669 5670 5670 5671 5671 5671 5672
5698 5695 5692 5688 5684 5681 5678 5674 5671 5669 5667 5665 5664 5663 5661 5658 5655 5654 5654 5658 5660 5660 5660 5660 5659 5659 5658 5656 5659 5660 5660 5661 5660 5660 5661 5662 5663 5663 5664 5664 5665 5666 5668
5692 5689 5686 5683 5679 5676 5672 5668 5665 5662 5660 5658 5657 5655 5654 5651 5647 5646 5645 5652 5653 5653 5653 5653 5652 5651 5646 5646 5650 5652 5653 5654 5654 5653 5653 5653 5653 5654 5655 5658 5659 5660 5661
5687 5684 5681 5677 5673 5670 5665 5661 5659 5656 5654 5652 5650 5648 5647 5645 5640 5639 5638 5646 5646 5647 5648 5647 5642 5641 5638 5638 5642 5644 5645 5647 5648 5649 5648 5648 5649 5649 5649 5650 5652 5653 5655
5682 5678 5674 5671 5667 5664 5660 5655 5652 5649 5647 5645 5644 5642 5640 5638 5634 5632 5631 5635 5638 5640 5642 5642 5639 5633 5631 5631 5632 5636 5636 5636 5640 5642 5645 5646 5646 5645 5646 5646 5646 5647 5648
5675 5671 5667 5664 5661 5659 5653 5649 5646 5642 5640 5638 5637 5635 5634 5631 5628 5626 5623 5623 5624 5628 5631 5633 5630 5625 5623 5623 5625 5626 5626 5627 5634 5636 5637 5639 5640 5640 5640 5640 5640 5640 5640
5667 5663 5660 5656 5653 5651 5647 5643 5640 5636 5635 5634 5632 5630 5628 5627 5623 5619 5616 5615 5615 5617 5621 5619 5618 5617 5616 5619 5618 5618 5620 5625 5628 5629 5630 5631 5632 5632 5632 5633 5634 5634 5634
5659 5655 5652 5649 5646 5643 5640 5638 5636 5632 5629 5627 5625 5624 5622 5620 5618 5616 5614 5612 5609 5611 5613 5611 5610 5611 5611 5612 5613 5615 5617 5619 5620 5621 5622 5623 5624 5625 5626 5627 5628 5628 5629
5650 5647 5645 5643 5640 5636 5633 5630 5628 5625 5622 5618 5617 5616 5613 5611 5607 5602 5603 5604 5604 5604 5602 5605 5608 5610 5611 5612 5612 5612 5612 5613 5613 5614 5614 5615 5616 5618 5619 5620 5621 5623 5623
5641 5639 5638 5636 5633 5630 5627 5623 5617 5615 5611 5606 5603 5602 5602 5599 5595 5593 5592 5591 5590 5590 5592 5599 5602 5603 5604 5605 5606 5607 5606 5606 5606 5606 5606 5607 5608 5610 5611 5613 5614 5615 5617
5632 5631 5631 5629 5625 5623 5620 5617 5613 5607 5602 5598 5595 5592 5589 5587 5586 5585 5584 5583 5582 5581 5587 5593 5595 5596 5597 5599 5600 5600 5600 5600 5599 5599 5599 5600 5601 5602 5603 5605 5606 5607 5609
5624 5622 5621 5620 5618 5616 5614 5611 5608 5605 5602 5598 5590 5585 5582 5580 5579 5578 5576 5576 5581 5580 5585 5588 5589 5590 5591 5592 5593 5593 5592 5592 5592 5591 5592 5592 5593 5594 5595 5596 5598 5598 5600
5615 5615 5613 5612 5610 5608 5606 5604 5601 5599 5596 5593 5590 5584 5577 5574 5572 5571 5570 5574 5579 5581 5582 5583 5583 5584 5584 5585 5585 5584 5584 5584 5584 5585 5585 5585 5585 5586 5587 5588 5590 5587 5589
5606 5603 5601 5602 5601 5599 5597 5595 5593 5591 5588 5585 5583 5580 5576 5573 5573 5572 5570 5572 5574 5576 5576 5576 5577 5577 5577 5577 5577 5577 5577 5577 5577 5578 5579 5578 5578 5578 5578 5579 5580 5581 5582
5598 5596 5591 5592 5592 5590 5588 5586 5584 5581 5579 5577 5575 5572 5567 5568 5569 5568 5568 5568 5569 5570 5570 5569 5570 5571 5571 5571 5571 5571 5570 5570 5570 5570 5571 5571 5571 5571 5570 5571 5572 5572 5573
5589 5588 5586 5584 5582 5581 5579 5577 5575 5573 5571 5569 5566 5564 5559 5560 5561 5561 5562 5563 5563 5563 5563 5563 5563 5564 5564 5564 5564 5564 5563 5563 5563 5563 5563 5563 5563 5564 5563 5563 5563 5563 5564
5578 5577 5576 5574 5572 5568 5568 5568 5566 5565 5563 5562 5560 5558 5556 5554 5554 5554 5555 5555 5556 5556 5556 5555 5555 5556 5556 5556 5556 5557 5557 5556 5556 5555 5555 5555 5556 5556 5555 5555 5554 5554 5555
5567 5565 5564 5563 5562 5561 5560 5559 5558 5556 5555 5554 5552 5551 5549 5547 5547 5547 5547 5547 5548 5548 5548 5548 5548 5548 5548 5548 5548 5549 5548 5547 5546 5547 5546 5546 5547 5547 5548 5547 5546 5547 5546
5557 5556 5554 5554 5553 5552 5552 5551 5550 5548 5547 5545 5544 5542 5541 5540 5539 5539 5539 5540 5540 5540 5541 5540 5540 5541 5541 5540 5540 5540 5538 5536 5535 5535 5535 5537 5538 5538 5538 5538 5538 5538 5538
5547 5546 5545 5545 5544 5544 5543 5542 5540 5539 5538 5536 5535 5534 5533 5532 5532 5532 5532 5532 5532 5533 5533 5533 5533 5533 5533 5533 5531 5529 5527 5526 5524 5523 5524 5526 5528 5529 5529 5529 5529 5529 5529